• In Uzbekistan
  • List of Countries
  • For 7 days
  • Water Temperature
  • Weather Map
  • Weather Widgets
  • user-avatar
    Login

    Hourly Weather La Rioja

    Today, 4 April, Saturday

    Time Temperature Precipitation Wind Pressure Humidity
    00:00 +20°C° 0 mm 1 mps 711 mmHg 63%
    01:00 +20°C° 0 mm 1 mps 711 mmHg 64%
    02:00 +19°C° 0 mm 1 mps 711 mmHg 66%
    03:00 +19°C° 0 mm 1 mps 711 mmHg 67%
    04:00 +18°C° 0 mm 2 mps 710 mmHg 69%
    05:00 +17°C° 0 mm 2 mps 710 mmHg 70%
    06:00 +18°C° 0 mm 2 mps 711 mmHg 68%
    07:00 +18°C° 0 mm 2 mps 711 mmHg 66%
    08:00 +19°C° 0 mm 2 mps 712 mmHg 64%
    09:00 +20°C° 0 mm 3 mps 712 mmHg 60%
    10:00 +22°C° 0 mm 3 mps 712 mmHg 56%
    11:00 +24°C° 0 mm 3 mps 712 mmHg 52%
    12:00 +25°C° 0 mm 3 mps 712 mmHg 50%
    13:00 +26°C° 0 mm 2 mps 711 mmHg 48%
    14:00 +27°C° 0 mm 2 mps 711 mmHg 46%
    15:00 +27°C° 0 mm 2 mps 711 mmHg 46%
    16:00 +27°C° 0 mm 2 mps 710 mmHg 46%
    17:00 +27°C° 0 mm 1 mps 710 mmHg 46%
    18:00 +26°C° 0 mm 1 mps 710 mmHg 50%
    19:00 +24°C° 0 mm 1 mps 710 mmHg 54%
    20:00 +23°C° 0 mm 1 mps 711 mmHg 58%
    21:00 +23°C° 0 mm 1 mps 711 mmHg 60%
    22:00 +22°C° 0 mm 1 mps 711 mmHg 61%
    23:00 +22°C° 0 mm 1 mps 711 mmHg 63%

    Tomorrow, 5 April, Sunday

    Time Temperature Precipitation Wind Pressure Humidity
    00:00 +21°C° 0 mm 1 mps 710 mmHg 65%
    01:00 +21°C° 0 mm 1 mps 710 mmHg 66%
    02:00 +21°C° 0 mm 1 mps 709 mmHg 68%
    03:00 +20°C° 0 mm 1 mps 709 mmHg 69%
    04:00 +20°C° 0 mm 1 mps 709 mmHg 70%
    05:00 +20°C° 0 mm 1 mps 708 mmHg 71%
    06:00 +21°C° 0 mm 1 mps 708 mmHg 68%
    07:00 +20°C° 0 mm 2 mps 709 mmHg 66%
    08:00 +21°C° 0 mm 2 mps 709 mmHg 63%
    09:00 +24°C° 0 mm 2 mps 709 mmHg 59%
    10:00 +25°C° 0 mm 2 mps 710 mmHg 55%
    11:00 +27°C° 0 mm 2 mps 710 mmHg 52%
    12:00 +28°C° 0 mm 3 mps 710 mmHg 50%
    13:00 +28°C° 0 mm 3 mps 709 mmHg 48%
    14:00 +29°C° 0 mm 3 mps 709 mmHg 46%
    15:00 +29°C° 0 mm 3 mps 709 mmHg 46%
    16:00 +29°C° 0 mm 3 mps 710 mmHg 47%
    17:00 +29°C° 0 mm 3 mps 710 mmHg 47%
    18:00 +27°C° 0 mm 3 mps 711 mmHg 51%
    19:00 +26°C° 0 mm 2 mps 712 mmHg 54%
    20:00 +25°C° 0 mm 2 mps 713 mmHg 58%
    21:00 +25°C° 0 mm 2 mps 714 mmHg 59%
    22:00 +24°C° 0 mm 2 mps 714 mmHg 60%
    23:00 +24°C° 0 mm 2 mps 715 mmHg 61%

    Day after tomorrow, 6 April, Monday

    Time Temperature Precipitation Wind Pressure Humidity
    00:00 +23°C° 0 mm 2 mps 716 mmHg 62%
    01:00 +23°C° 0 mm 2 mps 716 mmHg 63%
    02:00 +23°C° 0 mm 2 mps 716 mmHg 63%
    03:00 +21°C° 0 mm 2 mps 717 mmHg 64%
    04:00 +21°C° 0 mm 2 mps 717 mmHg 64%
    05:00 +21°C° 0 mm 2 mps 717 mmHg 64%
    06:00 +21°C° 0 mm 2 mps 718 mmHg 61%
    07:00 +23°C° 0 mm 1 mps 719 mmHg 58%
    08:00 +24°C° 0 mm 1 mps 720 mmHg 54%
    09:00 +25°C° 0 mm 2 mps 720 mmHg 52%
    10:00 +26°C° 0 mm 2 mps 721 mmHg 49%
    11:00 +27°C° 0 mm 3 mps 721 mmHg 47%
    12:00 +26°C° 0 mm 3 mps 720 mmHg 48%
    13:00 +26°C° 0 mm 3 mps 720 mmHg 48%
    14:00 +26°C° 0 mm 3 mps 719 mmHg 49%
    15:00 +26°C° 0 mm 3 mps 719 mmHg 49%
    16:00 +26°C° 0 mm 2 mps 719 mmHg 49%
    17:00 +26°C° 0 mm 2 mps 718 mmHg 48%
    18:00 +26°C° 0 mm 2 mps 719 mmHg 50%
    19:00 +25°C° 0 mm 2 mps 719 mmHg 51%
    20:00 +25°C° 0 mm 2 mps 720 mmHg 52%
    21:00 +24°C° 0 mm 2 mps 720 mmHg 51%
    22:00 +22°C° 0 mm 3 mps 720 mmHg 51%
    23:00 +22°C° 0 mm 3 mps 720 mmHg 50%

    7 April, Tuesday

    Time Temperature Precipitation Wind Pressure Humidity
    00:00 +21°C° 0 mm 3 mps 720 mmHg 49%
    01:00 +20°C° 0 mm 2 mps 720 mmHg 48%
    02:00 +21°C° 0 mm 1 mps 720 mmHg 47%
    03:00 +20°C° 0 mm 1 mps 719 mmHg 46%
    04:00 +20°C° 0 mm 1 mps 719 mmHg 46%
    05:00 +20°C° 0 mm 1 mps 719 mmHg 45%
    06:00 +20°C° 0 mm 1 mps 719 mmHg 45%
    07:00 +20°C° 0 mm 1 mps 719 mmHg 44%
    08:00 +19°C° 0 mm 2 mps 719 mmHg 44%
    09:00 +20°C° 0 mm 2 mps 719 mmHg 42%
    10:00 +21°C° 0 mm 2 mps 719 mmHg 40%
    11:00 +23°C° 0 mm 2 mps 718 mmHg 38%
    12:00 +24°C° 0 mm 2 mps 718 mmHg 38%
    13:00 +25°C° 0 mm 2 mps 717 mmHg 37%
    14:00 +26°C° 0 mm 2 mps 717 mmHg 37%
    15:00 +26°C° 0 mm 3 mps 716 mmHg 38%
    16:00 +26°C° 0 mm 3 mps 716 mmHg 38%
    17:00 +26°C° 0 mm 3 mps 716 mmHg 39%
    18:00 +25°C° 0 mm 3 mps 716 mmHg 43%
    19:00 +24°C° 0 mm 3 mps 716 mmHg 48%
    20:00 +21°C° 0 mm 2 mps 717 mmHg 52%
    21:00 +21°C° 0 mm 2 mps 717 mmHg 56%
    22:00 +21°C° 0 mm 1 mps 718 mmHg 59%
    23:00 +21°C° 0 mm 1 mps 718 mmHg 63%

    8 April, Wednesday

    Time Temperature Precipitation Wind Pressure Humidity
    00:00 +20°C° 0 mm 1 mps 718 mmHg 65%
    01:00 +20°C° 0 mm 1 mps 718 mmHg 67%
    02:00 +19°C° 0 mm 1 mps 718 mmHg 69%
    03:00 +19°C° 0 mm 1 mps 718 mmHg 71%
    04:00 +19°C° 0 mm 1 mps 718 mmHg 73%
    05:00 +18°C° 0 mm 1 mps 718 mmHg 75%
    06:00 +19°C° 0 mm 1 mps 718 mmHg 72%
    07:00 +19°C° 0 mm 1 mps 719 mmHg 69%
    08:00 +20°C° 0 mm 1 mps 719 mmHg 66%
    09:00 +20°C° 0 mm 2 mps 719 mmHg 61%
    10:00 +21°C° 0 mm 2 mps 719 mmHg 57%
    11:00 +24°C° 0 mm 2 mps 719 mmHg 53%
    12:00 +24°C° 0 mm 2 mps 719 mmHg 51%
    13:00 +25°C° 0 mm 2 mps 718 mmHg 49%
    14:00 +26°C° 0 mm 3 mps 718 mmHg 48%
    15:00 +26°C° 0 mm 3 mps 717 mmHg 48%
    16:00 +26°C° 0 mm 3 mps 717 mmHg 48%
    17:00 +26°C° 0 mm 3 mps 717 mmHg 48%
    18:00 +24°C° 0 mm 3 mps 717 mmHg 52%
    19:00 +22°C° 0 mm 3 mps 717 mmHg 55%
    20:00 +20°C° 0 mm 2 mps 718 mmHg 59%
    21:00 +19°C° 0 mm 2 mps 718 mmHg 60%
    22:00 +19°C° 0 mm 2 mps 718 mmHg 61%
    23:00 +18°C° 0 mm 2 mps 718 mmHg 63%

    9 April, Thursday

    Time Temperature Precipitation Wind Pressure Humidity
    00:00 +18°C° 0 mm 2 mps 718 mmHg 63%
    01:00 +18°C° 0 mm 2 mps 718 mmHg 64%
    02:00 +17°C° 0 mm 2 mps 718 mmHg 64%
    03:00 +17°C° 0 mm 2 mps 718 mmHg 65%
    04:00 +17°C° 0 mm 2 mps 717 mmHg 66%
    05:00 +16°C° 0 mm 1 mps 717 mmHg 68%
    06:00 +18°C° 0 mm 1 mps 717 mmHg 66%
    07:00 +19°C° 0 mm 1 mps 718 mmHg 64%
    08:00 +19°C° 0 mm 1 mps 718 mmHg 62%
    09:00 +21°C° 0 mm 1 mps 718 mmHg 58%
    10:00 +21°C° 0 mm 2 mps 718 mmHg 55%
    11:00 +24°C° 0 mm 2 mps 718 mmHg 51%
    12:00 +25°C° 0 mm 2 mps 717 mmHg 49%
    13:00 +26°C° 0 mm 2 mps 717 mmHg 47%
    14:00 +27°C° 0 mm 3 mps 716 mmHg 45%
    15:00 +27°C° 0 mm 2 mps 716 mmHg 45%
    16:00 +27°C° 0 mm 2 mps 716 mmHg 45%
    17:00 +27°C° 0 mm 2 mps 716 mmHg 44%
    18:00 +25°C° 0 mm 2 mps 716 mmHg 48%
    19:00 +24°C° 0 mm 2 mps 716 mmHg 51%
    20:00 +21°C° 0 mm 2 mps 717 mmHg 55%
    21:00 +20°C° 0 mm 2 mps 717 mmHg 57%
    22:00 +21°C° 0 mm 1 mps 717 mmHg 60%
    23:00 +20°C° 0 mm 1 mps 718 mmHg 63%
    Show more